Regional Weather Roundup
Issued by NWS

Home | Current Version | Previous Version | Graphics & Text | Print | Product List | Glossary On
Versions: 1 2 3 4 5 6 7 8 9 10 11 12 13 14 15 16 17 18 19 20 21 22 23 24 25 26 27 28 29 30 31 32 33 34 35 36 37 38 39 40 41 42 43 44 45 46 47 48 49 50
000
ASUS43 KTOP 190759
RWRKS

WEATHER ROUNDUP FOR KANSAS
NATIONAL WEATHER SERVICE GOODLAND KS
300 AM CDT THU OCT 19 2017

NOTE:  "FAIR" INDICATES FEW OR NO CLOUDS BELOW 12,000 FEET WITH NO
SIGNIFICANT WEATHER AND/OR OBSTRUCTIONS TO VISIBILITY.

KSZ001>006-013>018-027>032-041>047-190900-
NORTHWEST KANSAS

CITY           SKY/WX    TMP DP  RH WIND       PRES   REMARKS
GOODLAND       CLOUDY    45  34  65 S7        30.09F
HAYS           CLEAR     46  39  76 NW6       30.05S
HILL CITY      CLEAR     43  37  79 N6        30.07F
RUSSELL        CLEAR     50  41  71 N7        30.03S
$$

KSZ061>065-074>080-084>089-190900-
SOUTHWEST KANSAS

CITY           SKY/WX    TMP DP  RH WIND       PRES   REMARKS
DODGE CITY     CLEAR     48  42  80 CALM      30.06S
ELKHART          N/A     59  45  60 S6          N/A
GARDEN CITY    CLEAR     50  38  63 NE6       30.06F
GREAT BEND     CLEAR     50  46  86 W5        30.04S
LIBERAL        CLOUDY    47  43  86 W5        30.06F
$$

KSZ066>073-081>083-090>101-190900-
SOUTHEAST KANSAS

CITY           SKY/WX    TMP DP  RH WIND       PRES   REMARKS
CHANUTE        CLEAR     54  47  77 S9        30.10R
COFFEYVILLE    CLEAR     52  48  86 SE6       30.10R
HUTCHINSON     CLEAR     53  47  79 SE3       30.05S
MEDICINE LODGE   N/A     53  46  77 E6        30.06R
NEWTON         CLEAR     56  48  74 S10       30.06S
PARSONS        PTCLDY    48  46  93 CALM      30.12R
WICHITA INTL   CLEAR     53  48  83 S7        30.06R
WICHITA JABRA  CLEAR     56  50  80 S9        30.06S
WICHITA MCCONL CLEAR     55  47  74 S5        30.07R
WINFIELD       CLEAR     56  49  77 SE5       30.09R
$$

KSZ007>012-019>026-033>040-048>060-102>105-190900-
NORTHEAST KANSAS

CITY           SKY/WX    TMP DP  RH WIND       PRES   REMARKS
CONCORDIA      CLEAR     49  46  90 SE3       30.03S
EMPORIA        CLEAR     53  48  83 S12       30.06S
LAWRENCE       CLEAR     50  48  93 CALM      30.07R FOG
MANHATTAN      CLEAR     46  46 100 CALM      30.05R FOG
OLATHE IND     CLEAR     52  48  86 S5        30.08S
OLATHE EXE     CLEAR     53  48  83 S6        30.08R
SALINA         CLEAR     55  50  83 CALM      30.04R
TOPEKA BILLARD CLEAR     51  50  96 CALM      30.06R
TOPEKA FORBES  CLEAR     54  50  86 CALM      30.06R
$$




USA.gov is the U.S. government's official web portal to all federal, state and local government web resources and services.